Retour au catalogue

STARLINK-35937

ActifCommunicationsVLEO
NORAD 66517·PAYLOAD·🇺🇸 United States

Lancé Nov 19, 2025 depuis Cape Canaveral Space Force Station

Loading…

Prochains Passages (prochaines 24 heures)

TLE

FraisSource: CelesTrak SupGP

Époque: Sep 14, 2026, 22:42 UTC

1 66517C 25265B   26257.94631944  .00028634  00000+0  10370-2 0  2579
2 66517  43.0024 289.5350 0001854 271.9669  63.4116 15.27568215    14

Suivez STARLINK-35937 en temps réel avec AllMySat

Download on the App Store